San Antonio, TX

2:54 PM CDT on August 28, 2016 (GMT -0500)
Stinson Municipal

Weather History for KSSF - May, 2013

Change the Weather History Date:

Wednesday, May 8, 2013

  Actual Average Record
Temperature  
Mean Temperature 73 °F -  
Max Temperature 84 °F 83 °F 100 °F (2011)
Min Temperature 62 °F 65 °F 33 °F (1998)
Cooling Degree Days 8    
Growing Degree Days 23 (Base 50)    
Moisture  
Dew Point 63 °F    
Average Humidity 75    
Maximum Humidity 100    
Minimum Humidity 44    
Precipitation  
Precipitation 0.00 in - - ()
Sea Level Pressure  
Sea Level Pressure 29.94 in    
Wind  
Wind Speed 9 mph (SE)    
Max Wind Speed 16 mph    
Max Gust Speed 25 mph    
Visibility 10 miles    
Events      
Averages and records for this station are not official NWS values.
T = Trace of Precipitation, MM = Missing Value Source: NWS Daily Summary

Daily Weather History Graph

Daily Weather History Graph

Search for Another Location

Airport or City:

Trip Planner

Search our weather history database for the weather conditions in past years. The results will help you decide how hot, cold, wet, or windy it might be!

Date:

Astronomy

May. 08, 2013 Rise Set
Actual Time 6:46 AM CDT 8:14 PM CDT
Civil Twilight 6:20 AM CDT 8:40 PM CDT
Nautical Twilight 5:50 AM CDT 9:11 PM CDT
Astronomical Twilight 5:18 AM CDT 9:43 PM CDT
Moon 5:49 AM CDT (5/8) 7:17 PM CDT (5/8)
Length of Visible Light 14h 19m
Length of Day
13h 28m
Waning Crescent, 2% of the Moon is Illuminated
May 8
Waning Crescent
May 9
New
May 17
First Quarter
May 24
Full
May 31
Last Quarter

Hourly Weather History & Observations

Time (CDT) Temp. Heat Index Dew Point Humidity Pressure Visibility Wind Dir Wind Speed Gust Speed Precip Events Conditions
12:53 AM 66.9 °F - 57.9 °F 73% 29.96 in 10.0 mi SE 8.1 mph - N/A   Clear
1:53 AM 64.0 °F - 59.0 °F 84% 29.96 in 10.0 mi SE 4.6 mph - N/A   Clear
2:53 AM 63.0 °F - 59.0 °F 87% 29.94 in 10.0 mi ESE 4.6 mph - N/A   Clear
3:38 AM 62.6 °F - 60.8 °F 94% 29.96 in 10.0 mi East 4.6 mph - N/A   Mostly Cloudy
3:53 AM 63.0 °F - 60.1 °F 90% 29.94 in 10.0 mi East 4.6 mph - N/A   Overcast
4:53 AM 64.9 °F - 62.1 °F 90% 29.94 in 10.0 mi East 5.8 mph - N/A   Overcast
5:18 AM 64.4 °F - 62.6 °F 94% 29.96 in 10.0 mi East 4.6 mph - N/A   Overcast
5:53 AM 64.9 °F - 63.0 °F 93% 29.94 in 10.0 mi SE 4.6 mph - N/A   Overcast
6:33 AM 64.4 °F - 64.4 °F 100% 29.97 in 10.0 mi SE 6.9 mph - N/A   Overcast
6:53 AM 64.9 °F - 64.0 °F 97% 29.96 in 10.0 mi SE 5.8 mph - N/A   Overcast
7:11 AM 66.2 °F - 64.4 °F 94% 29.99 in 10.0 mi ESE 5.8 mph - N/A   Overcast
7:53 AM 66.9 °F - 64.0 °F 90% 29.97 in 10.0 mi SE 8.1 mph - N/A   Overcast
8:42 AM 68.0 °F - 64.4 °F 88% 30.00 in 10.0 mi SSE 10.4 mph - N/A   Overcast
8:53 AM 69.1 °F - 64.9 °F 87% 29.99 in 10.0 mi SSE 13.8 mph - N/A   Overcast
9:35 AM 69.8 °F - 64.4 °F 83% 30.01 in 10.0 mi SSE 9.2 mph 17.3 mph N/A   Overcast
9:53 AM 71.1 °F - 64.0 °F 78% 29.98 in 10.0 mi South 15.0 mph 21.9 mph N/A   Overcast
10:53 AM 73.0 °F - 64.0 °F 73% 29.99 in 10.0 mi SSE 15.0 mph 24.2 mph N/A   Overcast
11:53 AM 75.9 °F - 63.0 °F 64% 29.97 in 10.0 mi SSE 16.1 mph 25.3 mph N/A   Overcast
12:03 PM 75.2 °F - 62.6 °F 65% 29.99 in 10.0 mi SE 15.0 mph 21.9 mph N/A   Overcast
12:53 PM 78.1 °F - 63.0 °F 60% 29.96 in 10.0 mi SSE 13.8 mph 20.7 mph N/A   Overcast
1:53 PM 80.1 °F 81.5 °F 63.0 °F 56% 29.94 in 10.0 mi SE 12.7 mph - N/A   Overcast
2:53 PM 81.0 °F 81.9 °F 62.1 °F 52% 29.92 in 10.0 mi SE 12.7 mph - N/A   Overcast
3:53 PM 84.0 °F 84.5 °F 62.1 °F 47% 29.88 in 10.0 mi SE 11.5 mph - N/A   Mostly Cloudy
4:53 PM 84.0 °F 84.4 °F 61.0 °F 46% 29.87 in 10.0 mi ESE 16.1 mph 20.7 mph N/A   Partly Cloudy
5:53 PM 84.9 °F 85.0 °F 61.0 °F 44% 29.86 in 10.0 mi ESE 11.5 mph - N/A   Clear
6:53 PM 82.9 °F 83.3 °F 61.0 °F 47% 29.84 in 10.0 mi SE 16.1 mph 21.9 mph N/A   Partly Cloudy
7:53 PM 80.1 °F 81.1 °F 61.0 °F 52% 29.84 in 10.0 mi SE 11.5 mph 25.3 mph N/A   Clear
8:53 PM 75.0 °F - 63.0 °F 66% 29.87 in 10.0 mi SSE 12.7 mph 24.2 mph N/A   Clear
9:53 PM 73.0 °F - 64.0 °F 73% 29.90 in 10.0 mi SE 10.4 mph - N/A   Clear
10:32 PM 71.6 °F - 64.4 °F 78% 29.95 in 10.0 mi SE 11.5 mph 18.4 mph N/A   Mostly Cloudy
10:53 PM 72.0 °F - 64.9 °F 78% 29.93 in 10.0 mi SE 11.5 mph - N/A   Overcast
11:53 PM 71.1 °F - 66.0 °F 84% 29.93 in 10.0 mi ESE 10.4 mph - N/A   Overcast